This is the latest recevied weather packets stored in our database for station/object VE3DVC. If no packets are shown the sender has not sent any weather packets the latest 10 day(s).
| Time | Temp. | Humidity | Pressure | Rain* | Wind** | Luminosity | Snow |
|---|---|---|---|---|---|---|---|
| 1777700152 | 2.22° C | 74% | 1015.5 hPa | 0 mm | - | - | - |
| 1777699233 | 2.22° C | 75% | 1015.6 hPa | 0 mm | - | - | - |
| 1777698513 | 2.22° C | 76% | 1015.7 hPa | 0 mm | - | - | - |
| 1777697793 | 2.22° C | 75% | 1015.7 hPa | 0 mm | - | - | - |
| 1777697074 | 2.22° C | 75% | 1015.6 hPa | 0 mm | - | - | - |
| 1777696354 | 2.22° C | 75% | 1015.4 hPa | 0 mm | - | - | - |
| 1777695633 | 2.22° C | 72% | 1015.3 hPa | 0 mm | - | - | - |
| 1777693966 | 2.78° C | 74% | 1015.2 hPa | 0 mm | - | - | - |
| 1777693246 | 2.78° C | 73% | 1015.2 hPa | 0 mm | - | - | - |
| 1777692525 | 3.33° C | 72% | 1015.1 hPa | 0 mm | - | - | - |
| 1777691806 | 3.33° C | 70% | 1015.2 hPa | 0 mm | - | - | - |
| 1777691086 | 3.33° C | 69% | 1015.1 hPa | 0 mm | - | - | - |
| 1777690366 | 3.89° C | 68% | 1015 hPa | 0 mm | - | - | - |
| 1777689646 | 3.89° C | 67% | 1015 hPa | 0 mm | - | - | - |
| 1777688926 | 4.44° C | 66% | 1014.8 hPa | 0 mm | - | - | - |
| 1777688206 | 4.44° C | 64% | 1014.8 hPa | 0 mm | - | - | - |
| 1777687486 | 5° C | 63% | 1014.7 hPa | 0 mm | - | - | - |
| 1777686766 | 5° C | 62% | 1014.5 hPa | 0 mm | - | - | - |
| 1777686046 | 5.56° C | 61% | 1014.4 hPa | 0 mm | - | - | - |
| 1777685325 | 5.56° C | 59% | 1014.3 hPa | 0 mm | - | - | - |
| 1777684606 | 6.11° C | 59% | 1014.3 hPa | 0 mm | - | - | - |
| 1777683886 | 6.11° C | 59% | 1014.1 hPa | 0 mm | - | - | - |
| 1777683166 | 6.11° C | 61% | 1013.9 hPa | 0 mm | - | - | - |
| 1777682446 | 6.67° C | 60% | 1013.8 hPa | 0 mm | - | - | - |
| 1777681726 | 6.67° C | 59% | 1013.4 hPa | 0 mm | - | - | - |
* Rain latest hour (hover to see other rain measurements)
** Current wind speed in m/s (hover to see current wind gust speed)